N312YH KISM-KISM

Flight info

Callsign N312YH
Flight time 0h 21m
Altitude VFR
Route PATTERN
Aircraft C172/L-VGD/C

Departure

Time 2026-05-05 01:58
Airport Kissimmee Gateway Airport (KISM)

Arrival

Time 2026-05-05 02:19
Airport Kissimmee Gateway Airport (KISM)
Time Latitude Longitude Altitude Speed Heading
2026-05-05 01:52 28.29196 -81.44094 86 ft 0 kts 222°
2026-05-05 01:53 28.29193 -81.44098 84 ft 3 kts 232°
2026-05-05 01:54 28.29214 -81.44128 86 ft 10 kts 326°
2026-05-05 01:54 28.29261 -81.44140 85 ft 13 kts 38°
2026-05-05 01:54 28.29338 -81.44115 84 ft 12 kts 328°
2026-05-05 01:54 28.29425 -81.44176 83 ft 18 kts 328°
2026-05-05 01:55 28.29538 -81.44255 85 ft 14 kts 331°
2026-05-05 01:55 28.29578 -81.44240 84 ft 5 kts 59°
2026-05-05 01:55 28.29579 -81.44239 84 ft 0 kts 56°
2026-05-05 01:56 28.29586 -81.44227 85 ft 7 kts 56°
2026-05-05 01:57 28.29606 -81.44188 83 ft 10 kts 66°
2026-05-05 01:57 28.29543 -81.44109 80 ft 24 kts 148°
2026-05-05 01:57 28.29271 -81.43920 87 ft 65 kts 148°
2026-05-05 01:57 28.28832 -81.43617 166 ft 81 kts 148°
2026-05-05 01:58 28.28326 -81.43272 322 ft 87 kts 147°
2026-05-05 01:58 28.27810 -81.42940 594 ft 85 kts 144°
2026-05-05 01:58 28.27220 -81.42836 854 ft 93 kts 188°
2026-05-05 01:58 28.26664 -81.43256 1038 ft 103 kts 234°
2026-05-05 01:59 28.26385 -81.43999 1235 ft 107 kts 275°
2026-05-05 01:59 28.26683 -81.44729 1426 ft 102 kts 325°
2026-05-05 01:59 28.27236 -81.45254 1550 ft 106 kts 334°
2026-05-05 01:59 28.27847 -81.45776 1614 ft 113 kts 335°
2026-05-05 02:00 28.28511 -81.46261 1615 ft 116 kts 335°
2026-05-05 02:00 28.29195 -81.46727 1626 ft 112 kts 343°
2026-05-05 02:00 28.29759 -81.47031 1562 ft 112 kts 345°
2026-05-05 02:00 28.30462 -81.47356 1421 ft 101 kts
2026-05-05 02:01 28.31052 -81.47182 1323 ft 82 kts 50°
2026-05-05 02:01 28.31361 -81.46656 1178 ft 80 kts 68°
2026-05-05 02:01 28.31433 -81.46060 1033 ft 79 kts 105°
2026-05-05 02:01 28.31153 -81.45478 796 ft 86 kts 123°
2026-05-05 02:02 28.30725 -81.44993 572 ft 88 kts 135°
2026-05-05 02:02 28.30215 -81.44596 345 ft 86 kts 142°
2026-05-05 02:02 28.29745 -81.44256 140 ft 76 kts 142°
2026-05-05 02:02 28.29349 -81.43971 83 ft 58 kts 148°
2026-05-05 02:03 28.28963 -81.43704 97 ft 79 kts 147°
2026-05-05 02:03 28.28459 -81.43354 231 ft 88 kts 144°
2026-05-05 02:03 28.27934 -81.42998 442 ft 88 kts 149°
2026-05-05 02:03 28.27335 -81.42922 710 ft 93 kts 195°
2026-05-05 02:04 28.26810 -81.43383 932 ft 98 kts 231°
2026-05-05 02:04 28.26443 -81.44053 1131 ft 104 kts 252°
2026-05-05 02:04 28.26517 -81.44876 1299 ft 107 kts 305°
2026-05-05 02:04 28.27046 -81.45444 1451 ft 107 kts 336°
2026-05-05 02:05 28.27706 -81.45866 1501 ft 111 kts 342°
2026-05-05 02:05 28.28403 -81.46247 1542 ft 112 kts 345°
2026-05-05 02:05 28.29125 -81.46611 1542 ft 114 kts 344°
2026-05-05 02:05 28.29830 -81.47007 1471 ft 113 kts 342°
2026-05-05 02:06 28.30529 -81.47308 1320 ft 100 kts
2026-05-05 02:06 28.31095 -81.47022 1182 ft 86 kts 55°
2026-05-05 02:06 28.31367 -81.46436 1041 ft 80 kts 69°
2026-05-05 02:06 28.31469 -81.45838 865 ft 78 kts 102°
2026-05-05 02:07 28.31133 -81.45322 655 ft 86 kts 137°
2026-05-05 02:07 28.30663 -81.44904 439 ft 88 kts 144°
2026-05-05 02:07 28.30172 -81.44558 274 ft 77 kts 141°
2026-05-05 02:07 28.29739 -81.44248 133 ft 70 kts 143°
2026-05-05 02:08 28.29366 -81.43984 82 ft 53 kts 147°
2026-05-05 02:08 28.29019 -81.43746 90 ft 73 kts 147°
2026-05-05 02:08 28.28529 -81.43401 165 ft 90 kts 148°
2026-05-05 02:08 28.28001 -81.43036 382 ft 89 kts 144°
2026-05-05 02:09 28.27485 -81.42687 684 ft 84 kts 162°
2026-05-05 02:09 28.26896 -81.42820 924 ft 94 kts 211°
2026-05-05 02:09 28.26458 -81.43411 1107 ft 101 kts 232°
2026-05-05 02:09 28.26149 -81.44136 1283 ft 107 kts 265°
2026-05-05 02:10 28.26351 -81.44929 1422 ft 104 kts 315°
2026-05-05 02:10 28.26909 -81.45426 1536 ft 103 kts 341°
2026-05-05 02:10 28.27573 -81.45830 1524 ft 113 kts 341°
2026-05-05 02:10 28.28276 -81.46253 1560 ft 116 kts 341°
2026-05-05 02:11 28.29006 -81.46670 1551 ft 117 kts 343°
2026-05-05 02:11 28.29737 -81.47069 1549 ft 115 kts 343°
2026-05-05 02:11 28.30448 -81.47317 1437 ft 99 kts 13°
2026-05-05 02:11 28.30990 -81.47014 1350 ft 83 kts 55°
2026-05-05 02:12 28.31289 -81.46451 1182 ft 85 kts 68°
2026-05-05 02:12 28.31166 -81.45347 755 ft 88 kts 136°
2026-05-05 02:12 28.30671 -81.44933 499 ft 89 kts 143°
2026-05-05 02:13 28.30173 -81.44559 280 ft 79 kts 143°
2026-05-05 02:13 28.29740 -81.44248 125 ft 68 kts 143°
2026-05-05 02:13 28.29380 -81.43993 82 ft 52 kts 150°
2026-05-05 02:13 28.28983 -81.43720 105 ft 81 kts 148°
2026-05-05 02:14 28.28459 -81.43348 191 ft 95 kts 147°
2026-05-05 02:14 28.27888 -81.42999 423 ft 91 kts 148°
2026-05-05 02:14 28.27349 -81.42662 725 ft 86 kts 148°
2026-05-05 02:14 28.26745 -81.42630 958 ft 97 kts 197°
2026-05-05 02:15 28.26229 -81.43165 1133 ft 106 kts 235°
2026-05-05 02:15 28.25887 -81.43906 1352 ft 107 kts 250°
2026-05-05 02:15 28.25923 -81.44740 1504 ft 107 kts 297°
2026-05-05 02:15 28.26394 -81.45389 1538 ft 108 kts 335°
2026-05-05 02:16 28.27049 -81.45820 1583 ft 110 kts 345°
2026-05-05 02:16 28.27765 -81.46189 1575 ft 115 kts 345°
2026-05-05 02:16 28.28524 -81.46555 1487 ft 120 kts 346°
2026-05-05 02:16 28.29275 -81.46941 1489 ft 119 kts 343°
2026-05-05 02:17 28.30011 -81.47366 1459 ft 115 kts 341°
2026-05-05 02:17 28.30689 -81.47704 1379 ft 97 kts
2026-05-05 02:17 28.31269 -81.47510 1248 ft 83 kts 48°
2026-05-05 02:17 28.31580 -81.46974 1083 ft 82 kts 69°
2026-05-05 02:18 28.31788 -81.46407 965 ft 74 kts 83°
2026-05-05 02:18 28.31626 -81.45866 790 ft 78 kts 122°
2026-05-05 02:18 28.31243 -81.45416 590 ft 80 kts 133°
2026-05-05 02:18 28.30811 -81.45014 409 ft 81 kts 142°
2026-05-05 02:19 28.30354 -81.44676 289 ft 73 kts 142°
2026-05-05 02:19 28.29937 -81.44389 179 ft 68 kts 143°
2026-05-05 02:19 28.29546 -81.44118 85 ft 60 kts 143°
2026-05-05 02:19 28.29287 -81.43929 83 ft 24 kts 148°
2026-05-05 02:20 28.29175 -81.43855 85 ft 15 kts 150°
2026-05-05 02:20 28.29111 -81.43869 88 ft 10 kts 238°
2026-05-05 02:20 28.29087 -81.43933 85 ft 9 kts 292°
2026-05-05 02:20 28.29134 -81.43970 84 ft 8 kts 329°
2026-05-05 02:21 28.29186 -81.44008 83 ft 9 kts 328°
2026-05-05 02:21 28.29244 -81.44049 83 ft 13 kts 329°
2026-05-05 02:21 28.29278 -81.44128 84 ft 11 kts 285°
2026-05-05 02:21 28.29300 -81.44177 84 ft 0 kts 231°